Content
SEND FEEDBACK

Daily
Averages
Monthly
Summary
United States of America

CANDO, NORTH DAKOTA


Home > North America > United States > North Dakota
Elevation: 1490 feet     Latitude: 48 29N     Longitude: 099 12W

WEATHER
 
SELECT A DAY
Number of Records: 82,248;   Date Range: 11/18/10 - 4/18/14
 
SHARE

PRINT THIS DATA

[ ← Previous Day ]
WEATHER ALMANAC - JANUARY 31, 2013
[ Next Day → ]
[ °C ]   °F
Weather ElementAverageHighLow
Temperature-16.8 °F-13 °F (5:15 am)-22 °F (10:35 pm)
Dewpoint-25 °F-22 °F (12:35 am)-29.2 °F (9:55 pm)
Humidity66.6 %76 % (1:35 am)58 % (11:15 am)
Barometer30.16 in30.24 in (11:35 am)29.98 in (12:35 am)
Wind Speed15.6 mph21.9 mph (2:35 pm)
Wind Gust24.2 mph (7:15 pm)
Weather ElementAverage
Visibility8.8 mi
Wind DirectionWNW (300.3 °)

Weather ElementTotal
Precipitation---
Heating Degree Days82.5 (Base 65)
Averaged from 69 records on January 31, 2013
WEATHER CONDITIONS BREAKOUT
WIND DIRECTION BREAKOUT
WEATHER BY HOUR - JANUARY 31, 2013
[ °C ]   °F
Local TimeTemperatureDewpointHumidityBarometerVisibilityWind DirectionWind SpeedGust SpeedPrecipitationEventsConditions
12:35 AM-14.8 °F-22.0 °F70 %29.98 in4.0 miNNW (330°)15.0 mphHaze
12:55 AM-14.8 °F-22.0 °F70 %29.99 in4.0 miNNW (340°)15.0 mphHaze
1:15 AM-14.8 °F-22.0 °F70 %29.99 in9.0 miNNW (340°)16.1 mphOvercast
1:35 AM-16.6 °F-22.0 °F76 %30.00 in9.0 miNNW (330°)17.3 mphOvercast
1:55 AM-16.6 °F-23.8 °F70 %30.01 in10.0 miNNW (330°)18.4 mphOvercast
2:15 AM-14.8 °F-22.0 °F70 %30.02 in10.0 miNW (320°)16.1 mphOvercast
2:35 AM-14.8 °F-22.0 °F70 %30.03 in8.0 miNW (320°)18.4 mphOvercast
2:55 AM-14.8 °F-22.0 °F70 %30.03 in7.0 miNNW (330°)18.4 mphOvercast
3:15 AM-16.6 °F-23.8 °F70 %30.04 in10.0 miNW (320°)18.4 mphOvercast
3:35 AM-16.6 °F-23.8 °F70 %30.06 in9.0 miNNW (330°)16.1 mphMostly Cloudy
3:55 AM-16.6 °F-22.0 °F76 %30.06 in5.0 miNNW (330°)17.3 mphSnowLight Snow
4:15 AM-14.8 °F-22.0 °F70 %30.07 in5.0 miNNW (330°)20.7 mphHaze
4:35 AM-14.8 °F-22.0 °F70 %30.08 in5.0 miNW (320°)17.3 mphHaze
4:55 AM-14.8 °F-22.0 °F70 %30.08 in7.0 miNW (310°)13.8 mph18.4 mphOvercast
5:15 AM-13.0 °F-22.0 °F64 %30.09 in5.0 miNW (320°)17.3 mph21.9 mphHaze
5:35 AM-13.0 °F-22.0 °F64 %30.10 in5.0 miNNW (330°)20.7 mphHaze
6:15 AM-14.8 °F-22.0 °F70 %30.12 in5.0 miNW (310°)15.0 mphHaze
6:35 AM-14.8 °F-22.0 °F70 %30.12 in5.0 miNW (310°)13.8 mphHaze
6:55 AM-16.6 °F-22.0 °F76 %30.13 in4.0 miNW (310°)12.7 mphHaze
7:15 AM-16.6 °F-22.0 °F76 %30.14 in6.0 miWNW (300°)12.7 mphHaze
7:35 AM-16.6 °F-23.8 °F70 %30.15 in8.0 miWNW (300°)12.7 mphOvercast
7:55 AM-16.6 °F-25.6 °F64 %30.16 in10.0 miWNW (300°)11.5 mphOvercast
8:15 AM-18.4 °F-25.6 °F70 %30.17 in10.0 miWNW (300°)12.7 mphOvercast
8:35 AM-16.6 °F-25.6 °F64 %30.18 in10.0 miNW (310°)15.0 mphOvercast
8:55 AM-18.4 °F-25.6 °F70 %30.18 in10.0 miNW (310°)13.8 mphMostly Cloudy
9:15 AM-18.4 °F-27.4 °F63 %30.19 in10.0 miNW (310°)16.1 mphClear
9:35 AM-18.4 °F-27.4 °F63 %30.20 in10.0 miWNW (300°)16.1 mphClear
9:55 AM-18.4 °F-27.4 °F63 %30.20 in10.0 miNW (310°)15.0 mphClear
10:15 AM-18.4 °F-27.4 °F63 %30.22 in10.0 miWNW (300°)15.0 mphScattered Clouds
10:35 AM-18.4 °F-27.4 °F63 %30.22 in10.0 miWNW (300°)13.8 mphScattered Clouds
10:55 AM-18.4 °F-27.4 °F63 %30.23 in10.0 miNW (310°)13.8 mphPartly Cloudy
11:15 AM-16.6 °F-27.4 °F58 %30.23 in10.0 miWNW (300°)13.8 mphPartly Cloudy
11:35 AM-16.6 °F-25.6 °F64 %30.24 in10.0 miWNW (300°)11.5 mphClear
11:55 AM-16.6 °F-25.6 °F64 %30.24 in10.0 miNW (310°)13.8 mphClear
12:15 PM-14.8 °F-25.6 °F58 %30.23 in10.0 miWNW (300°)15.0 mphClear
12:35 PM-16.6 °F-25.6 °F64 %30.23 in10.0 miWNW (290°)16.1 mphClear
12:55 PM-16.6 °F-25.6 °F64 %30.23 in10.0 miWNW (290°)18.4 mphClear
1:15 PM-14.8 °F-25.6 °F58 %30.24 in10.0 miWNW (300°)16.1 mphPartly Cloudy
1:35 PM-14.8 °F-23.8 °F64 %30.23 in10.0 miWNW (290°)16.1 mphPartly Cloudy
1:55 PM-14.8 °F-23.8 °F64 %30.23 in10.0 miWest (280°)15.0 mphClear
2:15 PM-14.8 °F-23.8 °F64 %30.23 in10.0 miWNW (290°)18.4 mphClear
2:35 PM-14.8 °F-23.8 °F64 %30.22 in9.0 miWNW (290°)21.9 mphClear
2:55 PM-14.8 °F-23.8 °F64 %30.21 in7.0 miWNW (290°)19.6 mphClear
3:15 PM-16.6 °F-23.8 °F70 %30.22 in5.0 miWNW (290°)19.6 mphHaze
3:35 PM-14.8 °F-23.8 °F64 %30.21 in9.0 miWNW (290°)19.6 mphClear
3:55 PM-14.8 °F-23.8 °F64 %30.21 in8.0 miWest (280°)19.6 mphClear
4:15 PM-14.8 °F-23.8 °F64 %30.22 in10.0 miWNW (290°)17.3 mphClear
4:35 PM-16.6 °F-25.6 °F64 %30.21 in10.0 miWest (280°)18.4 mphClear
4:55 PM-16.6 °F-25.6 °F64 %30.21 in10.0 miWest (280°)20.7 mphClear
5:15 PM-16.6 °F-25.6 °F64 %30.21 in10.0 miWNW (290°)18.4 mphClear
5:35 PM-16.6 °F-25.6 °F64 %30.21 in10.0 miWNW (290°)15.0 mphClear
5:55 PM-16.6 °F-25.6 °F64 %30.21 in10.0 miWNW (290°)19.6 mphClear
6:15 PM-16.6 °F-25.6 °F64 %30.22 in10.0 miWest (280°)18.4 mphClear
6:35 PM-16.6 °F-25.6 °F64 %30.22 in10.0 miWNW (290°)18.4 mphClear
6:55 PM-16.6 °F-25.6 °F64 %30.22 in10.0 miWNW (290°)19.6 mphClear
7:15 PM-16.6 °F-25.6 °F64 %30.21 in10.0 miWNW (290°)19.6 mph24.2 mphClear
7:35 PM-16.6 °F-25.6 °F64 %30.21 in10.0 miWNW (290°)18.4 mphClear
7:55 PM-18.4 °F-25.6 °F70 %30.22 in10.0 miWNW (290°)16.1 mphClear
8:15 PM-18.4 °F-25.6 °F70 %30.21 in10.0 miWest (280°)12.7 mphClear
8:35 PM-18.4 °F-27.4 °F63 %30.21 in10.0 miWest (280°)11.5 mphClear
9:15 PM-20.2 °F-27.4 °F69 %30.21 in10.0 miWest (280°)12.7 mphClear
9:35 PM-20.2 °F-27.4 °F69 %30.20 in10.0 miWest (280°)10.4 mphClear
9:55 PM-20.2 °F-29.2 °F63 %30.19 in10.0 miWest (280°)8.1 mphClear
10:15 PM-20.2 °F-29.2 °F63 %30.19 in10.0 miWest (280°)10.4 mphClear
10:35 PM-22.0 °F-29.2 °F69 %30.19 in10.0 miWest (280°)9.2 mphClear
10:55 PM-22.0 °F-29.2 °F69 %30.18 in10.0 miWest (280°)10.4 mphClear
11:15 PM-22.0 °F-29.2 °F69 %30.17 in10.0 miWest (280°)8.1 mphClear
11:35 PM-22.0 °F-29.2 °F69 %30.17 in10.0 miWest (270°)10.4 mphClear
11:55 PM-22.0 °F-29.2 °F69 %30.17 in10.0 miWest (280°)10.4 mphClear
Hourly data recorded from K9D7, located 1.39 miles away from Cando, North Dakota







STORIES FROM OUR PARTNERS